Other Public Products
Issued by NWS Charleston, SC

Current Version | Previous Version | Text Only | Print | Product List | Glossary Off
Versions: 1 2 3 4 5 6 7 8 9 10 11 12 13 14 15 16 17 18 19 20 21 22 23 24 25 26 27 28 29 30 31 32 33 34 35 36 37 38 39 40 41 42 43 44 45 46 47 48 49 50
000 FPUS82 KCHS 181612 OPUCHS TEST...KCHS/KSAV Gateway Observations...TEST National Weather Service Charleston SC 1200 PM EDT WED OCT 18 2017 NOTE: "fair" indicates few or no clouds below 12,000 feet with no significant weather and/or obstructions to visibility. SCZ050-WAZ558-NCZ071-TXZ119-213-PAZ071-DCZ001-FLZ074-172-MI076- NYZ176-178-MAZ016-IL014-TNZ027-NJZ106-GAZ044-MD014-181700- ...Gateway Observations for Charleston International... CITY SKY/WX TMP DP RH WIND PRES REMARKS Chas Airport SUNNY 69 55 60 NE12 30.31F Seattle CLOUDY 49 41 74 S10 29.88F Charlotte MOSUNNY 64 40 41 E7 30.40S Dallas DFW MOSUNNY 71 45 39 S16 30.16S Dallas Love MOSUNNY 70 47 43 S9 30.17S Philladelphia SUNNY 65 43 44 VRB3 30.36S Wash National SUNNY 63 46 54 S7 30.41R Baltimore SUNNY 68 43 40 SW5 30.38S Miami CLOUDY 84 75 74 NE8 30.05R HX 92 Detroit SUNNY 63 44 50 SW10 30.27S Newark MOSUNNY 67 42 40 VRB3 30.32S Laguardia MOSUNNY 65 42 43 NW5 30.32S J F K MOSUNNY 67 42 40 NW7 30.33S Boston Logan MOSUNNY 67 42 40 W10 30.26S Ft. Lauderdale CLOUDY 82 77 84 NE5 30.04R HX 90 Chicago O`Hare SUNNY 62 42 47 SW15 30.13F Chicago Midway SUNNY 63 43 48 S13 30.15F Houston Bush SUNNY 75 54 47 E3 30.19S Houston Hobby SUNNY 77 58 51 VRB3 30.18S Nashville MOSUNNY 66 43 43 S14 30.34F Atlanta MOSUNNY 63 41 44 E14 30.35F $$ GAZ044-118-TXZ119-213-NCZ071-DCZ001-MDZ014-506-PAZ021-071-NJZ106- NYZ176-178-MAZ106-OHZ011-021-055-MIZ076-KYZ091-ILZ014-INZ047- MNZ060-ONZ431-181700- ...Gateway Observations for Savannah International... CITY SKY/WX TMP DP RH WIND PRES REMARKS Savannah Arpt MOSUNNY 70 54 56 NE9 30.30S Atlanta MOSUNNY 63 41 44 E14 30.35F Charlotte MOSUNNY 64 40 41 E7 30.40S Dallas DFW MOSUNNY 71 45 39 S16 30.16S Houston Bush SUNNY 75 54 47 E3 30.19S Wash National SUNNY 63 46 54 S7 30.41R Wash Dulles SUNNY 65 42 43 CALM 30.40S Baltimore SUNNY 68 43 40 SW5 30.38S Philadelphia SUNNY 65 43 44 VRB3 30.36S Newark MOSUNNY 67 42 40 VRB3 30.32S Laguardia MOSUNNY 65 42 43 NW5 30.32S J F K MOSUNNY 67 42 40 NW7 30.33S Boston MOSUNNY 67 42 40 W10 30.26S Pittsburg MOSUNNY 61 42 49 VRB3 30.35F Akron SUNNY 63 42 46 S13 30.33S Cleveland SUNNY 65 44 46 S8 30.32F Cincinnati MOSUNNY 63 46 54 S8 30.32F Columbus SUNNY 61 44 53 S9 30.33S Detroit SUNNY 63 44 50 SW10 30.27S Chicago O`Hare SUNNY 62 42 47 SW15 30.13F Minneapolis CLOUDY 61 48 62 S12 29.78F Indianapolis MOSUNNY 62 45 53 SW12 30.29S Toronto Canada MOSUNNY 66 45 45 SW12 30.22F $$

USA.gov is the U.S. government's official web portal to all federal, state and local government web resources and services.